COSMOS 864 DEB

基本信息
目录编号:
43294
目录名称:
COSMOS 864 DEB
国际标识:
1976-108C
轨道中心:
EARTH
物体状态:
在轨
发射日期:
1976-10-29 UTC
轨道信息
数据来源: 国际轨道数据
星历时间: 2026-09-10T21:58:53+0800
半长轴: 7355.926km
偏心率: 0.0028546
轨道倾角: 82.937°
近地点辐角: 261.671°
升交点赤经: 85.252°
平近点角: 98.121°
近地点: 956.79km
远地点: 998.788km
周期: 104.644分钟
每日圈数: 13.760898
详细信息
发射场:
PKMTR
轨道高度:
LEO
数据来源:
AOE Integration Group
参考系:
TEME
时间系统:
UTC
历元类型:
SGP4
2D轨道图
3D轨道图
轨道高度分析图
轨道倾角分析图
轨道综合分析图
查看轨道综合分析图